Location: Del Amo
(33.8464°N, 118.2104°W)
Time: 00:16:13
(UTC+00:00)

A-11 Canister half - All Passes

Search period start: 12 September 2024 00:00
Search period end: 22 September 2024 00:00
Orbit: 1523 x 1684 km, 47.3° (Epoch: 11 September)

Date Brightness Start Highest point End Pass type
(mag) Time Alt. Az. Time Alt. Az. Time Alt. Az.
12 Sep - 00:05:01 10° W 00:14:01 42° NNW 00:23:21 10° NE daylight
12 Sep - 02:12:16 10° WNW 02:21:21 40° N 02:30:40 10° ENE visible
12 Sep - 04:17:49 10° NW 04:27:53 74° NNE 04:38:03 10° ESE visible
12 Sep - 06:23:34 10° WNW 06:32:34 38° SW 06:41:37 10° SSE visible
12 Sep - 19:35:03 10° S 19:42:09 25° SE 19:49:22 10° ENE daylight
12 Sep - 21:36:44 10° SW 21:46:11 88° SE 21:56:00 10° NE daylight
12 Sep - 23:43:07 10° W 23:52:09 43° NNW 00:01:30 10° NE daylight
13 Sep - 01:50:25 10° WNW 01:59:28 39° N 02:08:43 10° ENE daylight
13 Sep - 03:56:03 10° NW 04:06:02 72° NNE 04:16:12 10° ESE visible
13 Sep - 06:01:41 10° WNW 06:10:48 40° SW 06:20:01 10° SSE visible
13 Sep - 19:13:38 10° S 19:20:27 23° SE 19:27:21 10° ENE daylight
13 Sep - 21:15:00 10° SW 21:24:24 84° SE 21:34:10 10° NE daylight
13 Sep - 23:21:15 10° W 23:30:16 44° NNW 23:39:38 10° NE daylight
14 Sep - 01:28:35 10° WNW 01:37:33 39° N 01:46:47 10° ENE daylight
14 Sep - 03:34:15 10° NW 03:44:12 69° NNE 03:54:20 10° ESE visible
14 Sep - 05:39:49 10° WNW 05:49:03 43° SW 05:58:23 10° SSE visible
14 Sep - 18:52:16 10° S 18:58:44 21° SE 19:05:18 10° E daylight
14 Sep - 20:53:16 10° SW 21:02:38 81° SE 21:12:22 10° NE daylight
14 Sep - 22:59:22 10° W 23:08:25 45° NNW 23:17:47 10° NE daylight
15 Sep - 01:06:44 10° WNW 01:15:39 38° N 01:24:49 10° ENE daylight
15 Sep - 03:12:28 10° NW 03:22:22 66° NNE 03:32:27 10° ESE visible
15 Sep - 05:17:56 10° WNW 05:27:17 46° SW 05:36:44 10° SSE visible
15 Sep - 18:30:57 10° SSE 18:37:03 20° SE 18:43:13 10° E daylight
15 Sep - 20:31:32 10° SW 20:40:53 77° SE 20:50:32 10° NE daylight
15 Sep - 22:37:29 10° W 22:46:33 46° NNW 22:55:56 10° NE daylight
16 Sep - 00:44:54 10° WNW 00:53:45 38° N 01:02:52 10° ENE daylight
16 Sep - 02:50:41 10° NW 03:00:31 64° NNE 03:10:35 10° ESE visible
16 Sep - 04:56:06 10° WNW 05:05:31 48° SW 05:15:05 10° SSE visible
16 Sep - 18:09:40 10° SSE 18:15:22 18° ESE 18:21:07 10° E daylight
16 Sep - 20:09:50 10° SW 20:19:07 74° SE 20:28:42 10° NE daylight
16 Sep - 22:15:37 10° W 22:24:41 48° NNW 22:34:05 10° NE daylight
17 Sep - 00:23:02 10° WNW 00:31:52 37° N 00:40:56 10° ENE daylight
17 Sep - 02:28:53 10° NW 02:38:41 62° NNE 02:48:41 10° ESE visible
17 Sep - 04:34:15 10° WNW 04:43:46 51° SW 04:53:25 10° SSE visible
17 Sep - 17:48:26 10° SSE 17:53:40 16° ESE 17:58:56 10° E daylight
17 Sep - 19:48:08 10° SW 19:57:21 70° SE 20:06:54 10° ENE daylight
17 Sep - 21:53:45 10° W 22:02:50 49° NNW 22:12:15 10° NE daylight
18 Sep - 00:01:11 10° WNW 00:09:57 37° N 00:18:59 10° ENE daylight
18 Sep - 02:07:06 10° NW 02:16:50 59° NNE 02:26:47 10° ESE visible
18 Sep - 04:12:24 10° WNW 04:21:59 54° SW 04:31:44 10° SSE visible
18 Sep - 06:23:28 10° WSW 06:25:38 11° WSW 06:27:50 10° SW visible
18 Sep - 17:27:18 10° SSE 17:31:59 15° ESE 17:36:42 10° E daylight
18 Sep - 19:26:26 10° SW 19:35:37 66° SE 19:45:04 10° ENE daylight
18 Sep - 21:31:53 10° W 21:40:59 50° NNW 21:50:25 10° NE daylight
18 Sep - 23:39:20 10° WNW 23:48:03 37° N 23:57:03 10° ENE daylight
19 Sep - 01:45:20 10° NW 01:54:59 57° NNE 02:04:53 10° ESE daylight
19 Sep - 03:50:35 10° WNW 04:00:13 57° SW 04:10:03 10° SSE visible
19 Sep - 06:00:31 10° W 06:03:56 12° WSW 06:07:21 10° SW visible
19 Sep - 17:06:15 10° SSE 17:10:18 14° ESE 17:14:22 10° E daylight
19 Sep - 19:04:45 10° SW 19:13:52 63° SE 19:23:15 10° ENE daylight
19 Sep - 21:10:03 10° W 21:19:09 52° NNW 21:28:35 10° NE daylight
19 Sep - 23:17:29 10° WNW 23:26:10 37° N 23:35:07 10° ENE daylight
20 Sep - 01:23:33 10° NW 01:33:08 55° NNE 01:42:59 10° ESE daylight
20 Sep - 03:28:45 10° WNW 03:38:27 60° SW 03:48:19 10° SSE visible
20 Sep - 05:37:57 10° W 05:42:12 13° WSW 05:46:30 10° SSW visible
20 Sep - 16:45:23 10° SE 16:48:37 12° ESE 16:51:51 10° E daylight
20 Sep - 18:43:05 10° SSW 18:52:09 60° SE 19:01:25 10° ENE daylight
20 Sep - 20:48:11 10° W 20:57:19 54° NNW 21:06:46 10° NE daylight
20 Sep - 22:55:37 10° WNW 23:04:16 36° N 23:13:11 10° ENE daylight
21 Sep - 01:01:45 10° NW 01:11:16 54° NNE 01:21:03 10° E daylight
21 Sep - 03:06:56 10° WNW 03:16:40 63° SW 03:26:36 10° SE visible
21 Sep - 05:15:34 10° W 05:20:29 15° WSW 05:25:27 10° SSW visible
21 Sep - 16:24:53 10° SE 16:26:56 11° ESE 16:28:59 10° ESE daylight
21 Sep - 18:21:25 10° SSW 18:30:24 56° SE 18:39:35 10° ENE daylight
21 Sep - 20:26:21 10° WSW 20:35:29 55° NNW 20:44:56 10° NE daylight
21 Sep - 22:33:44 10° WNW 22:42:22 36° N 22:51:16 10° ENE daylight
